Location: Utrecht
(52.0907°N, 5.1214°E)
Time: 12:18:52
(UTC+02:00)

SPROUT - Visible Passes

Search period start: 30 June 2022 00:00
Search period end: 10 July 2022 00:00
Orbit: 588 x 601 km, 97.9° (Epoch: 29 June)

Date Brightness Start Highest point End Pass type
(mag) Time Alt. Az. Time Alt. Az. Time Alt. Az.
30 Jun ? 00:36:09 10° E 00:38:01 13° NE 00:39:53 10° NNE visible
30 Jun ? 02:10:15 21° SSE 02:12:57 81° ENE 02:17:08 10° NNW visible
30 Jun ? 03:47:06 10° WSW 03:49:07 13° W 03:51:09 10° WNW visible
01 Jul ? 00:44:58 10° E 00:47:21 15° ENE 00:49:46 10° NNE visible
01 Jul ? 02:19:49 23° SSE 02:22:23 83° WSW 02:26:36 10° NNW visible
01 Jul ? 03:57:43 10° W 03:58:42 11° W 03:59:42 10° WNW visible
02 Jul ? 00:53:54 10° E 00:56:42 18° ENE 00:59:30 10° NNE visible
02 Jul ? 02:29:24 23° S 02:31:52 67° WSW 02:36:02 10° NNW visible
03 Jul ? 01:02:56 10° ESE 01:06:03 21° ENE 01:09:11 10° NNE visible
03 Jul ? 02:38:57 23° S 02:41:19 54° W 02:45:26 10° NNW visible
04 Jul ? 01:12:00 10° ESE 01:15:23 25° ENE 01:18:48 10° N visible
04 Jul ? 02:48:31 22° SSW 02:50:47 44° W 02:54:49 10° NNW visible
05 Jul ? 01:21:26 12° ESE 01:24:44 29° ENE 01:28:22 10° N visible
05 Jul ? 02:58:04 21° SSW 03:00:16 36° W 03:04:08 10° NNW visible
06 Jul ? 01:30:58 14° SE 01:34:06 35° ENE 01:37:54 10° N visible
06 Jul ? 03:07:37 19° SW 03:09:44 30° W 03:13:26 10° NNW visible
07 Jul ? 01:40:31 16° SE 01:43:27 42° ENE 01:47:24 10° N visible
07 Jul ? 03:17:09 17° SW 03:19:13 24° W 03:22:40 10° NW visible
08 Jul ? 01:50:03 19° SE 01:52:49 51° ENE 01:56:53 10° N visible
08 Jul ? 03:26:41 15° SW 03:28:42 20° W 03:31:51 10° NW visible
09 Jul ? 00:26:39 10° ENE 00:27:24 10° NE 00:28:09 10° NE visible
09 Jul ? 01:59:34 22° SSE 02:02:10 63° ENE 02:06:19 10° N visible
09 Jul ? 03:36:12 13° WSW 03:38:11 17° W 03:40:56 10° NW visible
